Location: Newark
(35.8833°N, 14.5000°E)
Time: 03:10:41
(UTC+00:00)

Altair - Pass Details

Date: 23 November 2019
Orbit: 1502 x 1682 km, 47.2° (Epoch: 09 December)

Event Time Altitude Azimuth Distance (km) Brightness Sun altitude
Rises 08:37:09 0° 298° (WNW) 4,668 9.5 25.8°
Reaches altitude 10° 08:40:29 10° 290° (WNW) 3,702 9.1 26.2°
Maximum altitude 08:48:37 35° 229° (SW) 2,325 8.8 27.1°
Drops below altitude 10° 08:57:02 10° 168° (SSE) 3,810 11.0 27.9°
Sets 09:00:32 0° 160° (SSE) 4,820 11.3 28.3°
